Flag for American Samoa Weather past 2 weeks in Pago Pago, American Samoa

Now
85 °F

Broken clouds.


Feels Like: 92 °F
Forecast: 79 / 85 °F
Wind: 12 mph from Southeast

Location: Pago Pago / Int. Airp.


UV Index: 7 (High)

Visibility: 12 mi


Pressure: 29.83 "Hg

Humidity: 69%

Dew point: 74 °F

Location of Pago PagoLocation

Historic Weather in Pago Pago

°F

Pago Pago temperature yesterday

Maximum temperature yesterday: 85 °F (at 10:52 AM)
Minimum temperature yesterday: 76 °F (at 3:55 AM)
Average temperature yesterday: 78 °F

Past Weeks' High & Low Weather Summary

 TemperatureHumidityPressure
High88 °F (Apr 15, 12:51 PM)95% (Apr 10, 1:50 AM)29.94 "Hg (Apr 10, 1:50 AM)
Low75 °F (Apr 18, 3:56 AM)62% (Apr 7, 11:54 AM)29.73 "Hg (Apr 15, 2:50 PM)
Average82 °F83%29.83 "Hg
* Reported Apr 5 2:51 PM — Apr 20 2:54 PM, Pago Pago, Weather by CustomWeather, © 2014

Note: Actual official high and low records may vary slightly from our data, if they occured in-between our weather recording intervals... More about our weather records

Advertising

Historic Weather Conditions — Data for Previous 24 hours

 ConditionsComfort  
Time TempWeatherWind HumidityBarometerVisibility
2:54 PM
Apr 20
85 °FScattered clouds.13 mph71%29.84 "Hg12 mi
1:50 PM87 °FBroken clouds.13 mph71%29.85 "Hg12 mi
12:56 PM87 °FBroken clouds.12 mph71%29.86 "Hg12 mi
11:50 AM86 °FScattered clouds.13 mph72%29.88 "Hg12 mi
10:50 AM86 °FScattered clouds.12 mph72%29.91 "Hg12 mi
9:52 AM84 °FScattered clouds.15 mph74%29.91 "Hg12 mi
8:50 AM85 °FBroken clouds.14 mph72%29.91 "Hg12 mi
7:50 AM83 °FBroken clouds.15 mph77%29.89 "Hg12 mi
6:53 AM82 °FBroken clouds.15 mph79%29.88 "Hg12 mi
5:51 AM82 °FPartly cloudy.14 mph78%29.86 "Hg10 mi
4:53 AM82 °FMostly cloudy.15 mph80%29.85 "Hg10 mi
3:50 AM80 °FMostly cloudy.12 mph89%29.85 "Hg10 mi
2:53 AM78 °FLight rain. Mostly cloudy.6 mph90%29.85 "Hg8 mi
1:57 AM77 °FHeavy rain. Overcast.3 mph94%29.86 "Hg8 mi
12:52 AM77 °FLight rain. Overcast.7 mph91%29.88 "Hg9 mi
11:59 PM
Apr 19
78 °FSprinkles. Overcast.12 mph94%29.90 "Hg10 mi
10:58 PM78 °FOvercast.14 mph91%29.90 "Hg10 mi
9:50 PM78 °FSprinkles. Overcast.9 mph94%29.89 "Hg10 mi
8:50 PM77 °FLight rain. Overcast.5 mph94%29.88 "Hg10 mi
7:52 PM77 °FLight rain. Overcast.3 mph91%29.85 "Hg8 mi
6:54 PM78 °FLight rain. Overcast.6 mph90%29.86 "Hg8 mi
5:51 PM79 °FCloudy.6 mph93%29.85 "Hg8 mi
4:56 PM79 °FRain showers. Cloudy.5 mph93%29.83 "Hg7 mi
Weather by CustomWeather, © 2014

See weather overview